User: anonymous   Login
Location: Unspecified
(0.0000°N, 0.0000°E)
Time: 03:21:58
(UTC+00:00)
Language:

IRIDIUM 167 - Orbit

View from above orbital plane
View from above orbital plane
View from above satellite
View from above satellite

Ground track
Ground track

The orbit is defined by the following mean orbital elements,

1 43931U          26145.54998692 +.00000000 +00000-0 +16517-4 0 00007
2 43931  86.3983   3.0584 0002057  78.3981 281.7446 14.34218052    01
Epoch (UTC): 25 May 2026 13:11:58
Eccentricity: 0.0002057
inclination: 86.3983°
perigee height: 776 km
apogee height: 779 km
right ascension of ascending node: 3.0584°
argument of perigee: 78.3981°
revolutions per day: 14.34218052
mean anomaly at epoch: 281.7446°

The dashed part of the orbit path shows where the satellite is in the earth's shadow,  

DLR